STARLINK-34724

Last updated on Fri Dec 12 2025 00:02:05 GMT+0000 (Coordinated Universal Time)

1 66442U 25259W 25345.58335648 .00118092 00000+0 27997-2 0 9992 2 66442 43.0004 54.1709 0001201 284.6790 326.4131 15.40603458 6092
UTC large
Height (km)
Speed (km/s)
/
Latitude / Longitude
Inclination (degrees)
Orbital Period (minutes)
Azimuth
Elevation
Range (km)
Doppler Factor

Next 0 passes for location: London (51.5072 / 0.1276)

Sorry there are no passes over London.